Starlink 11694

operational
NORAD ID: 64243 Int'l Des: 2025-119 Owner: SPXS Country: US Constellation: starlink
LEOCIRCULAR

Über Starlink 11694

Beschreibung wird geladen...

Live-Position

3D-Globus wird geladen...

Nächste Überflüge

Höhenverlauf

Altitude vs Time

uPlot chart will show altitude changes over time

Zweizeiliger Elementsatz

1 64243U 25119L 25353.66262838 .00168316 00000-0 12844-2 0 9992
2 64243 42.9998 331.9270 0001363 271.9116 88.1595 15.70922981 32653
Epoch: 19. Dez. 2025 • Age: 9 hours

Aktueller Status

Höhe 357.0 km
Geschwindigkeit 7.70 km/s
Subsatellitenpunkt -8.86°S, 143.85°W
Startdatum 3. Juni 2025
Alter 0.5 years
Typ internet

Technische Details

Klassifizierung Payload
Masse 960.00 kg
Trockenmasse 910.00 kg
Gesamtmasse 960.00 kg
Länge 0.30 m
Durchmesser 4.10 m
Spannweite 29.00 m
Form Box + pan
Hersteller SPXS
Bus-Typ Starlink V2MD
Phasenstatus In Orbit
Besitzer/Staat SPXS/US

Große Konstellationen

Loading constellations...